Terminal Aerodrome Forecast
Issued by NWS Sterling, VA

Home | Current Version | Previous Version | Text Only | Print | Product List | Glossary On
Versions: 1 2 3 4 5 6 7 8 9 10 11 12 13
000
FTUS41 KLWX 201100
TAFCHO
TAF
KCHO 201135Z 2012/2112 VRB03KT P6SM BKN200
     FM201500 VRB04KT P6SM BKN110
     FM210100 00000KT P6SM SCT050 BKN110=

USA.gov is the U.S. government's official web portal to all federal, state and local government web resources and services.